Tracking 28125 objects as of 3-Oct-2023
HD Live streaming from Space Station
objects crossing your sky now

SL-24 R/B

Track SL-24 R/B now!
10-day predictions


NORAD ID: 40541
Int'l Code: 2015-014C
Perigee: 530.3 km
Apogee: 1,440.2 km
Inclination: 97.3 °
Period: 104.7 minutes
Semi major axis: 7356 km
RCS: Unknown
Launch date: March 25, 2015
Source: Commonwealth of Independent States (former USSR) (CIS)
Launch site: Orenburg, Russia (OREN)

Note: This is a ROCKET BODY
Your satellite tracking list
Your tracking list is empty




NASA's NSSDC Master Catalog

Two Line Element Set (TLE):
1 40541U 15014C   23275.50771420  .00000617  00000-0  15803-3 0  9994
2 40541  97.3437 290.4420 0618475 135.8268 229.4029 13.76005512427724
Source of the keplerian elements: AFSPC